Fort Dodge, IA

3:33 PM CDT on March 29, 2017 (GMT -0500)
Fort Dodge Regional

Weather History for KFOD - November, 2012

Change the Weather History Date:

Monday, November 19, 2012

  Actual Average Record
Temperature  
Mean Temperature 51 °F -  
Max Temperature 60 °F 45 °F 66 °F (1975)
Min Temperature 42 °F 26 °F 7 °F (1978)
Degree Days  
Heating Degree Days 14    
Growing Degree Days 1 (Base 50)    
Moisture  
Dew Point 38 °F    
Average Humidity 61    
Maximum Humidity 76    
Minimum Humidity 47    
Precipitation  
Precipitation 0.00 in - - ()
Sea Level Pressure  
Sea Level Pressure 30.04 in    
Wind  
Wind Speed 10 mph (South)    
Max Wind Speed 16 mph    
Max Gust Speed 23 mph    
Visibility 10 miles    
Events      
Averages and records for this station are not official NWS values.
T = Trace of Precipitation, MM = Missing Value Source: NWS Daily Summary

Daily Weather History Graph

Daily Weather History Graph

Search for Another Location

Airport or City:

Trip Planner

Search our weather history database for the weather conditions in past years. The results will help you decide how hot, cold, wet, or windy it might be!

Date:

Astronomy

Nov. 19, 2012 Rise Set
Actual Time 7:13 AM CST 4:50 PM CST
Civil Twilight 6:42 AM CST 5:21 PM CST
Nautical Twilight 6:08 AM CST 5:55 PM CST
Astronomical Twilight 5:35 AM CST 6:29 PM CST
Moon 12:13 PM CST (11/19) 11:22 PM CST (11/19)
Length of Visible Light 10h 38m
Length of Day
9h 36m
Waxing Crescent, 41% of the Moon is Illuminated
Nov 19
Waxing Crescent
Nov 20
First Quarter
Nov 28
Full
Dec 6
Last Quarter
Dec 13
New

Hourly Weather History & Observations

Time (CST) Temp. Windchill Dew Point Humidity Pressure Visibility Wind Dir Wind Speed Gust Speed Precip Events Conditions
12:15 AM 53.6 °F - 33.8 °F 47% 30.11 in 10.0 mi South 15.0 mph 19.6 mph N/A   Overcast
12:35 AM 53.6 °F - 33.8 °F 47% 30.11 in 10.0 mi South 12.7 mph 18.4 mph N/A   Overcast
12:55 AM 53.6 °F - 33.8 °F 47% 30.10 in 10.0 mi SSE 13.8 mph 23.0 mph N/A   Overcast
1:15 AM 53.6 °F - 35.6 °F 51% 30.08 in 10.0 mi SSE 12.7 mph 17.3 mph N/A   Overcast
1:35 AM 51.8 °F - 35.6 °F 54% 30.08 in 10.0 mi South 11.5 mph 19.6 mph N/A   Overcast
1:55 AM 51.8 °F - 35.6 °F 54% 30.08 in 10.0 mi SSE 12.7 mph 17.3 mph N/A   Mostly Cloudy
2:15 AM 51.8 °F - 35.6 °F 54% 30.08 in 10.0 mi SSE 10.4 mph 16.1 mph N/A   Overcast
2:35 AM 51.8 °F - 35.6 °F 54% 30.08 in 10.0 mi SSE 10.4 mph 17.3 mph N/A   Overcast
2:55 AM 53.6 °F - 35.6 °F 51% 30.07 in 10.0 mi SSE 12.7 mph 20.7 mph N/A   Overcast
3:15 AM 51.8 °F - 35.6 °F 54% 30.07 in 10.0 mi SSE 11.5 mph - N/A   Overcast
3:35 AM 50.0 °F - 35.6 °F 58% 30.07 in 10.0 mi SE 10.4 mph 17.3 mph N/A   Overcast
3:55 AM 48.2 °F - 35.6 °F 62% 30.06 in 10.0 mi SSE 10.4 mph - N/A   Overcast
4:15 AM 48.2 °F - 35.6 °F 62% 30.06 in 10.0 mi SSE 6.9 mph - N/A   Overcast
4:35 AM 48.2 °F - 37.4 °F 66% 30.06 in 10.0 mi SE 8.1 mph - N/A   Overcast
4:55 AM 48.2 °F - 35.6 °F 62% 30.06 in 10.0 mi ESE 8.1 mph - N/A   Scattered Clouds
5:15 AM 46.4 °F 42.9 °F 35.6 °F 66% 30.06 in 10.0 mi SSE 6.9 mph - N/A   Clear
5:35 AM 46.4 °F 42.9 °F 35.6 °F 66% 30.05 in 10.0 mi SSE 6.9 mph - N/A   Clear
5:55 AM 46.4 °F 42.9 °F 35.6 °F 66% 30.05 in 10.0 mi SSE 6.9 mph - N/A   Clear
6:15 AM 46.4 °F 42.4 °F 33.8 °F 62% 30.05 in 10.0 mi SSE 8.1 mph - N/A   Clear
6:35 AM 46.4 °F 41.1 °F 35.6 °F 66% 30.04 in 10.0 mi South 11.5 mph 16.1 mph N/A   Clear
6:55 AM 48.2 °F - 33.8 °F 58% 30.04 in 10.0 mi South 15.0 mph 20.7 mph N/A   Clear
7:35 AM 46.4 °F 41.5 °F 33.8 °F 62% 30.05 in 10.0 mi South 10.4 mph - N/A   Clear
7:55 AM 46.4 °F 41.5 °F 33.8 °F 62% 30.05 in 10.0 mi South 10.4 mph 17.3 mph N/A   Clear
8:15 AM 48.2 °F - 33.8 °F 58% 30.04 in 10.0 mi SSE 13.8 mph 18.4 mph N/A   Clear
8:35 AM 48.2 °F - 33.8 °F 58% 30.04 in 10.0 mi South 11.5 mph 16.1 mph N/A   Clear
8:55 AM 48.2 °F - 35.6 °F 62% 30.04 in 10.0 mi South 10.4 mph 16.1 mph N/A   Clear
9:15 AM 50.0 °F - 35.6 °F 58% 30.04 in 10.0 mi South 10.4 mph 17.3 mph N/A   Clear
9:35 AM 51.8 °F - 37.4 °F 58% 30.05 in 10.0 mi South 11.5 mph - N/A   Clear
9:55 AM 51.8 °F - 37.4 °F 58% 30.05 in 10.0 mi South 16.1 mph 20.7 mph N/A   Clear
10:15 AM 53.6 °F - 39.2 °F 58% 30.04 in 10.0 mi South 15.0 mph - N/A   Clear
10:35 AM 53.6 °F - 39.2 °F 58% 30.04 in 10.0 mi SSW 12.7 mph - N/A   Clear
10:55 AM 53.6 °F - 39.2 °F 58% 30.04 in 10.0 mi SSW 15.0 mph - N/A   Clear
11:15 AM 55.4 °F - 41.0 °F 58% 30.04 in 10.0 mi SSW 11.5 mph - N/A   Clear
11:35 AM 55.4 °F - 41.0 °F 58% 30.03 in 10.0 mi SSW 12.7 mph - N/A   Clear
11:55 AM 57.2 °F - 42.8 °F 59% 30.03 in 10.0 mi SSW 10.4 mph - N/A   Clear
12:15 PM 57.2 °F - 42.8 °F 59% 30.02 in 10.0 mi SSW 12.7 mph 18.4 mph N/A   Clear
12:35 PM 59.0 °F - 42.8 °F 55% 30.02 in 10.0 mi SSW 13.8 mph 17.3 mph N/A   Clear
12:55 PM 59.0 °F - 42.8 °F 55% 30.01 in 10.0 mi SSW 11.5 mph 16.1 mph N/A   Clear
1:15 PM 60.8 °F - 42.8 °F 52% 30.02 in 10.0 mi SW 9.2 mph - N/A   Clear
1:35 PM 60.8 °F - 42.8 °F 52% 30.01 in 10.0 mi SSW 9.2 mph - N/A   Clear
1:55 PM 60.8 °F - 44.6 °F 55% 30.01 in 10.0 mi SSW 10.4 mph - N/A   Clear
2:15 PM 60.8 °F - 42.8 °F 52% 30.00 in 10.0 mi SSW 10.4 mph - N/A   Clear
2:35 PM 60.8 °F - 42.8 °F 52% 30.00 in 10.0 mi SSW 10.4 mph 18.4 mph N/A   Clear
2:55 PM 60.8 °F - 44.6 °F 55% 30.00 in 10.0 mi SSW 10.4 mph 16.1 mph N/A   Clear
3:15 PM 60.8 °F - 44.6 °F 55% 30.00 in 10.0 mi SW 9.2 mph - N/A   Clear
3:35 PM 60.8 °F - 44.6 °F 55% 30.00 in 10.0 mi SSW 11.5 mph - N/A   Clear
3:55 PM 59.0 °F - 42.8 °F 55% 30.00 in 10.0 mi South 6.9 mph - N/A   Clear
4:15 PM 57.2 °F - 42.8 °F 59% 30.01 in 10.0 mi South 6.9 mph - N/A   Clear
4:35 PM 55.4 °F - 42.8 °F 63% 30.01 in 10.0 mi South 4.6 mph - N/A   Clear
4:55 PM 55.4 °F - 42.8 °F 63% 30.01 in 10.0 mi South 3.5 mph - N/A   Clear
5:15 PM 53.6 °F - 41.0 °F 62% 30.02 in 10.0 mi South 3.5 mph - N/A   Clear
5:35 PM 50.0 °F - 39.2 °F 66% 30.01 in 10.0 mi South 3.5 mph - N/A   Clear
5:55 PM 50.0 °F - 39.2 °F 66% 30.03 in 10.0 mi Calm Calm - N/A   Clear
6:15 PM 44.6 °F 43.1 °F 37.4 °F 76% 30.03 in 10.0 mi West 3.5 mph - N/A   Clear
6:35 PM 44.6 °F - 35.6 °F 71% 30.03 in 10.0 mi Calm Calm - N/A   Clear
6:55 PM 46.4 °F - 37.4 °F 71% 30.04 in 10.0 mi Calm Calm - N/A   Clear
7:15 PM 48.2 °F - 37.4 °F 66% 30.05 in 10.0 mi West 4.6 mph - N/A   Clear
7:35 PM 46.4 °F 44.3 °F 37.4 °F 71% 30.05 in 10.0 mi NNW 4.6 mph - N/A   Clear
7:55 PM 48.2 °F - 35.6 °F 62% 30.05 in 10.0 mi NNW 3.5 mph - N/A   Clear
8:15 PM 46.4 °F 44.3 °F 35.6 °F 66% 30.05 in 10.0 mi NW 4.6 mph - N/A   Clear
8:35 PM 46.4 °F 42.9 °F 35.6 °F 66% 30.05 in 10.0 mi NW 6.9 mph - N/A   Clear
8:55 PM 46.4 °F 45.2 °F 35.6 °F 66% 30.05 in 10.0 mi NNW 3.5 mph - N/A   Clear
9:15 PM 44.6 °F 42.2 °F 35.6 °F 71% 30.05 in 10.0 mi NW 4.6 mph - N/A   Clear
9:35 PM 44.6 °F 41.4 °F 35.6 °F 71% 30.06 in 10.0 mi NW 5.8 mph - N/A   Clear
9:55 PM 44.6 °F 42.2 °F 35.6 °F 71% 30.06 in 10.0 mi NNW 4.6 mph - N/A   Clear
10:15 PM 44.6 °F 41.4 °F 35.6 °F 71% 30.06 in 10.0 mi NNW 5.8 mph - N/A   Clear
10:35 PM 44.6 °F 40.7 °F 35.6 °F 71% 30.05 in 10.0 mi NNW 6.9 mph - N/A   Clear
10:55 PM 42.8 °F 38.0 °F 35.6 °F 76% 30.05 in 10.0 mi NNW 8.1 mph - N/A   Clear
11:15 PM 42.8 °F 38.0 °F 35.6 °F 76% 30.06 in 10.0 mi NNW 8.1 mph - N/A   Clear
11:35 PM 42.8 °F 38.6 °F 35.6 °F 76% 30.07 in 10.0 mi North 6.9 mph - N/A   Clear
11:55 PM 42.8 °F 38.6 °F 35.6 °F 76% 30.08 in 10.0 mi North 6.9 mph - N/A   Clear